Weather reports worldwide

Advertisment
Stuttgart, Germany (10739): temperature & dewpoint: 12.01.2020 14:00:00 - 18.01.2020 14:00:00 (CET)Stuttgart, Germany (10739): temperature 5cm & temperature -5cm: 12.01.2020 14:00:00 - 18.01.2020 14:00:00 (CET)Stuttgart, Germany (10739): temperature -20cm & temperature -100cm: 12.01.2020 14:00:00 - 18.01.2020 14:00:00 (CET)Stuttgart, Germany (10739): wind speed & gusts: 12.01.2020 14:00:00 - 18.01.2020 14:00:00 (CET)Stuttgart, Germany (10739): wind direction: 12.01.2020 14:00:00 - 18.01.2020 14:00:00 (CET)Stuttgart, Germany (10739): reduced air pressure: 12.01.2020 14:00:00 - 18.01.2020 14:00:00 (CET)Stuttgart, Germany (10739): visibility: 12.01.2020 14:00:00 - 18.01.2020 14:00:00 (CET)Stuttgart, Germany (10739): sunshine duration: 12.01.2020 14:00:00 - 18.01.2020 14:00:00 (CET)Stuttgart, Germany (10739): precipitation: 12.01.2020 14:00:00 - 18.01.2020 14:00:00 (CET)
Date & Time tt [°C] td [°C] tt 5cm [°C] tt -5cm [°C] tt -20cm [°C] tt -100cm [°C] ff [km/h] ff [kn] fx [km/h] fx [kn] dd ppp [hPa] vv [km] sd [min] rr [mm]
18.01.2020 14:00:00 4,5 0,5 3,4 5,9 5,0 6,9 5 3 32 17 NW 1027,3 58 5 0,2
18.01.2020 13:00:00 5,4 1,4 5,3 5,9 4,8 6,9 12 7 28 15 NW 1027,5 66 1 0,0
18.01.2020 12:00:00 6,8 -0,8 8,0 6,6 4,7 6,9 13 7 27 14 WSW 1027,6 62 53 0,0
18.01.2020 11:00:00 5,9 1,1 7,2 4,7 4,7 6,9 13 7 22 12 S 1028,1 61 59 0,0
18.01.2020 10:00:00 4,7 1,4 4,3 3,3 4,8 6,9 11 6 15 8 S 1028,0 61 6 0,0
18.01.2020 09:00:00 4,5 0,9 1,6 2,9 4,9 6,9 5 3 9 5 S 1028,1 56 0 0,0
18.01.2020 08:00:00 4,8 1,1 3,6 3,3 5,0 6,9 7 4 16 9 W 1027,9 58 0 0,0
18.01.2020 07:00:00 4,9 1,3 2,7 3,7 5,1 6,9 5 3 19 10 W 1027,5 61 0 0,0
18.01.2020 06:00:00 5,2 1,9 3,7 3,8 5,2 6,9 7 4 14 7 W 1026,9 55 0 0,0
18.01.2020 05:00:00 5,5 2,1 3,9 4,2 5,2 6,9 8 4 20 11 W 1026,2 55 0 0,0
18.01.2020 04:00:00 5,9 3,2 4,5 4,5 5,3 6,9 10 5 26 14 W 1025,9 51 0 0,0
18.01.2020 03:00:00 6,3 3,3 5,2 4,6 5,3 6,9 13 7 22 12 WNW 1025,2 56 0 0,0
18.01.2020 02:00:00 6,4 3,4 5,2 4,9 5,3 6,9 13 7 31 17 W 1024,6 58 0 0,0
18.01.2020 01:00:00 7,1 3,6 6,1 5,1 5,3 6,9 20 11 38 21 W 1023,7 49 0 0,0
18.01.2020 00:00:00 7,2 4,1 5,9 5,2 5,3 6,9 9 5 21 11 W 1023,3 54 0 0,0
17.01.2020 23:00:00 7,4 4,2 5,7 5,4 5,3 6,9 12 6 22 12 W 1022,7 73 0 0,0
17.01.2020 22:00:00 7,7 5,0 6,3 5,6 5,3 6,9 10 5 16 9 W 1022,4 75 0 0,0
17.01.2020 21:00:00 8,0 5,2 6,6 5,7 5,3 6,9 9 5 16 9 SW 1021,7 66 0 0,0
17.01.2020 20:00:00 7,8 5,7 6,3 5,7 5,2 6,9 6 3 14 8 SSW 1021,2 59 0 0,1
17.01.2020 19:00:00 7,9 5,6 6,3 5,7 5,2 6,9 8 5 19 11 SW 1020,8 31 0 0,4
17.01.2020 18:00:00 8,7 5,0 6,6 5,7 5,1 6,9 8 4 16 9 WSW 1020,5 34 0 0,2
17.01.2020 17:00:00 9,9 3,9 8,3 5,8 5,0 6,9 6 4 16 9 WSW 1019,5 71 0 0,0
17.01.2020 16:00:00 8,8 3,2 7,9 6,0 4,9 6,9 11 6 16 9 S 1019,1 36 0 0,0
17.01.2020 15:00:00 8,0 3,0 7,4 6,1 4,7 6,9 9 5 16 9 SSE 1019,1 36 0 0,0
17.01.2020 14:00:00 8,0 2,9 8,0 6,3 4,4 6,9 13 7 22 12 SSE 1019,4 38 3 0,0
17.01.2020 13:00:00 8,1 2,2 8,4 6,6 4,2 6,9 18 10 22 12 SSE 1020,0 43 40 0,0
17.01.2020 12:00:00 6,6 1,7 6,7 5,7 4,0 6,9 13 7 19 10 S 1020,8 35 57 0,0
17.01.2020 11:00:00 5,4 1,6 7,0 3,5 4,0 6,9 14 8 21 12 S 1021,8 30 57 0,0
17.01.2020 10:00:00 3,0 0,9 2,7 2,1 4,1 6,9 17 9 22 12 SSE 1022,1 26 46 0,0
17.01.2020 09:00:00 1,9 0,5 1,2 1,4 4,2 6,9 14 7 26 14 SSE 1022,3 24 21 0,0
17.01.2020 08:00:00 1,0 0,1 -0,2 1,4 4,4 6,9 14 8 22 12 SSE 1022,6 24 0 0,0
17.01.2020 07:00:00 1,5 0,5 0,4 1,6 4,5 6,9 16 9 21 11 SSE 1022,9 22 0 0,0
17.01.2020 06:00:00 1,9 0,8 0,6 1,8 4,7 6,9 13 7 18 10 SSE 1023,1 20 0 0,0
17.01.2020 05:00:00 2,1 1,1 0,8 2,0 4,9 6,9 12 7 18 10 SSE 1023,3 20 0 0,0
17.01.2020 04:00:00 2,8 1,5 1,2 2,2 5,0 6,9 10 5 16 8 SSE 1023,7 25 0 0,0
17.01.2020 03:00:00 3,4 1,5 1,4 2,4 5,2 6,9 10 5 16 9 SSE 1024,2 28 0 0,0
17.01.2020 02:00:00 3,8 1,7 1,9 2,7 5,4 6,9 14 8 18 10 SSE 1024,2 27 0 0,0
17.01.2020 01:00:00 4,6 2,0 1,8 2,6 5,7 6,9 11 6 13 7 S 1024,7 31 0 0,0
17.01.2020 00:00:00 5,3 2,6 1,0 3,0 5,9 6,9 7 4 9 5 SSE 1025,1 32 0 0,0
16.01.2020 23:00:00 5,9 2,8 2,5 3,8 6,2 6,9 6 4 12 7 SE 1025,5 36 0 0,0
16.01.2020 22:00:00 6,7 2,9 3,2 4,4 6,4 6,9 10 5 14 7 SSE 1026,1 37 0 0,0
16.01.2020 21:00:00 7,4 3,2 4,7 5,1 6,5 6,8 11 6 18 10 SE 1026,6 44 0 0,0
16.01.2020 20:00:00 8,3 3,7 5,8 5,7 6,7 6,8 15 8 19 11 SSE 1026,6 45 0 0,0
16.01.2020 19:00:00 9,6 3,9 7,4 6,5 6,8 6,8 16 9 23 13 SE 1026,7 58 0 0,0
16.01.2020 18:00:00 10,7 4,6 7,9 7,1 6,9 6,8 11 6 18 10 SE 1026,6 60 0 0,0
16.01.2020 17:00:00 11,7 4,7 8,8 8,6 6,8 6,8 10 5 13 7 E 1026,4 52 42 0,0
16.01.2020 16:00:00 13,1 4,2 12,9 10,5 6,6 6,8 6 3 10 5 NE 1026,4 72 60 0,0
16.01.2020 15:00:00 13,5 3,8 15,3 11,6 6,2 6,8 5 3 9 5 E 1026,5 68 60 0,0
16.01.2020 14:00:00 13,2 3,6 16,3 11,3 5,8 6,8 5 3 11 6 ENE 1026,9 69 60 0,0
16.01.2020 13:00:00 12,2 3,6 13,9 9,7 5,6 6,8 8 5 14 7 SE 1027,9 60 42 0,0
16.01.2020 12:00:00 10,2 3,9 10,7 7,5 5,4 6,8 11 6 15 8 SE 1028,9 57 0 0,0
16.01.2020 11:00:00 9,3 3,6 9,4 6,6 5,3 6,8 10 5 16 8 SE 1029,6 51 1 0,0
16.01.2020 10:00:00 8,8 3,5 8,4 5,9 5,3 6,8 10 5 16 9 SSE 1029,7 43 0 0,0
16.01.2020 09:00:00 8,7 3,1 7,8 5,6 5,3 6,8 6 3 12 7 SE 1029,4 57 0 0,0
16.01.2020 08:00:00 8,9 3,1 7,8 5,6 5,2 6,8 10 5 14 8 S 1029,0 53 0 0,0
16.01.2020 07:00:00 9,0 3,1 7,9 5,5 5,2 6,8 10 5 15 8 S 1028,5 60 0 0,0
16.01.2020 06:00:00 9,0 3,0 8,0 5,5 5,2 6,8 12 7 16 9 S 1028,3 54 0 0,0
16.01.2020 05:00:00 8,8 2,8 7,8 5,4 5,2 6,8 12 6 18 10 S 1028,1 70 0 0,0
16.01.2020 04:00:00 8,8 2,7 7,6 5,3 5,2 6,8 15 8 22 12 S 1027,6 55 0 0,0
16.01.2020 03:00:00 8,6 2,7 7,7 5,3 5,1 6,8 17 9 22 12 S 1027,5 64 0 0,0
16.01.2020 02:00:00 8,8 2,7 7,5 5,2 5,1 6,8 12 7 18 10 S 1026,7 50 0 0,0
16.01.2020 01:00:00 9,7 2,9 8,1 5,3 5,1 6,8 13 7 21 11 S 1026,1 67 0 0,0
16.01.2020 00:00:00 8,7 2,7 7,7 5,1 5,2 6,8 14 8 17 9 SSE 1025,6 52 0 0,0
15.01.2020 23:00:00 8,5 2,4 7,2 4,8 5,2 6,8 12 6 14 8 SSE 1024,9 52 0 0,0
15.01.2020 22:00:00 8,3 2,3 7,0 4,6 5,3 6,9 12 6 14 8 SSE 1024,1 55 0 0,0
15.01.2020 21:00:00 8,4 2,3 5,6 4,7 5,4 6,9 12 6 17 9 SSE 1023,7 69 0 0,0
15.01.2020 20:00:00 10,3 2,3 7,1 5,1 5,5 6,9 12 7 24 13 S 1023,0 67 0 0,0
15.01.2020 19:00:00 11,0 2,3 7,6 5,3 5,6 6,9 10 5 22 12 SSW 1022,2 75 0 0,0
15.01.2020 18:00:00 11,6 2,2 8,8 5,9 5,6 6,9 13 7 23 12 SW 1021,2 75 0 0,0
15.01.2020 17:00:00 12,0 2,2 8,6 7,0 5,5 6,9 10 5 24 13 S 1020,0 68 41 0,0
15.01.2020 16:00:00 13,3 1,8 12,0 8,3 5,2 6,9 16 8 31 17 WSW 1019,5 75 60 0,0
15.01.2020 15:00:00 13,6 1,8 12,7 9,0 4,8 6,9 13 7 27 15 SW 1018,5 75 60 0,0
15.01.2020 14:00:00 13,6 2,2 15,2 9,0 4,5 6,9 6 4 15 8 S 1018,2 70 60 0,0
15.01.2020 13:00:00 11,3 1,7 12,2 7,9 4,2 6,9 12 7 19 10 SSE 1018,8 57 60 0,0
15.01.2020 12:00:00 10,6 1,9 11,8 6,4 3,9 6,9 11 6 18 10 S 1019,2 54 60 0,0
15.01.2020 11:00:00 9,2 1,5 10,1 4,5 3,9 6,9 12 6 23 12 S 1019,6 69 60 0,0
15.01.2020 10:00:00 5,3 0,2 5,9 3,0 3,9 6,9 13 7 16 9 SSE 1020,2 44 60 0,0
15.01.2020 09:00:00 4,7 0,2 3,5 2,2 4,0 6,9 8 4 23 12 SSE 1020,0 55 15 0,0
15.01.2020 08:00:00 4,7 0,0 3,0 2,5 4,0 6,9 21 11 24 13 S 1019,4 43 0 0,0
15.01.2020 07:00:00 5,1 0,2 3,4 2,8 4,1 6,9 13 7 20 11 S 1019,1 55 0 0,0
15.01.2020 06:00:00 5,7 0,2 4,4 2,8 4,2 6,9 13 7 18 10 S 1018,8 55 0 0,0
15.01.2020 05:00:00 5,4 0,2 3,4 2,9 4,2 6,9 14 8 23 13 SSE 1019,0 49 0 0,0
15.01.2020 04:00:00 6,5 0,4 4,9 3,0 4,3 6,9 15 8 19 10 SSE 1018,4 58 0 0,0
15.01.2020 03:00:00 6,2 0,6 4,3 3,0 4,4 6,9 16 8 20 11 SSE 1018,9 52 0 0,0
15.01.2020 02:00:00 7,9 0,0 5,0 3,2 4,4 6,9 9 5 19 10 S 1018,4 63 0 0,0
15.01.2020 01:00:00 7,2 0,6 4,0 3,5 4,5 6,9 4 2 14 8 SE 1018,6 57 0 0,0
15.01.2020 00:00:00 7,2 0,5 5,1 3,7 4,6 6,9 9 5 20 11 SSE 1018,5 50 0 0,0
14.01.2020 23:00:00 7,5 0,4 5,7 3,7 4,6 6,9 11 6 19 11 SSE 1018,2 48 0 0,0
14.01.2020 22:00:00 7,3 0,4 4,9 3,9 4,7 6,9 10 5 13 7 SE 1018,3 45 0 0,0
14.01.2020 21:00:00 7,8 0,4 5,7 4,2 4,7 6,9 11 6 16 9 SSE 1018,1 46 0 0,0
14.01.2020 20:00:00 9,1 0,0 6,9 4,5 4,7 6,9 11 6 17 9 S 1018,0 57 0 0,0
14.01.2020 19:00:00 8,7 0,4 7,0 4,8 4,7 6,9 13 7 19 10 SSE 1017,8 62 0 0,0
14.01.2020 18:00:00 9,4 0,7 7,7 5,1 4,7 6,9 14 7 22 12 SSE 1017,5 58 0 0,0
14.01.2020 17:00:00 9,8 0,7 8,2 5,4 4,6 6,9 17 9 22 12 SSE 1016,8 68 0 0,0
14.01.2020 16:00:00 10,3 0,1 8,9 5,7 4,4 6,9 10 6 21 11 SSE 1016,8 64 0 0,0
14.01.2020 15:00:00 11,4 -2,0 9,7 5,8 4,2 6,9 13 7 32 17 S 1016,1 75 0 0,0
14.01.2020 14:00:00 11,4 -1,9 10,1 6,4 3,9 6,9 19 10 31 17 S 1015,7 64 9 0,0
14.01.2020 13:00:00 11,6 -2,8 11,7 6,3 3,7 6,9 13 7 24 13 S 1016,0 75 42 0,0
14.01.2020 12:00:00 10,2 -0,4 11,0 5,0 3,5 6,9 13 7 21 11 SSE 1016,3 54 26 0,0
14.01.2020 11:00:00 6,5 -0,3 6,6 3,5 3,4 6,9 13 7 19 10 SSE 1017,4 52 6 0,0
14.01.2020 10:00:00 5,3 -1,1 4,7 2,4 3,4 6,9 9 5 13 7 SE 1017,5 53 14 0,0
14.01.2020 09:00:00 4,2 -0,6 3,7 1,3 3,5 6,9 8 4 16 9 SE 1017,1 49 12 0,0
14.01.2020 08:00:00 3,8 -0,9 1,2 1,5 3,6 6,9 9 5 22 12 SSE 1016,4 53 0 0,0
14.01.2020 07:00:00 3,4 -0,4 2,1 1,7 3,7 6,9 16 9 26 14 SSE 1016,3 46 0 0,0
14.01.2020 06:00:00 3,6 -0,3 2,0 1,9 3,8 6,9 16 9 23 13 S 1016,2 48 0 0,0
14.01.2020 05:00:00 3,3 0,0 1,8 1,8 3,9 6,9 18 10 22 12 SSE 1016,0 48 0 0,0
14.01.2020 04:00:00 2,8 0,4 1,5 1,9 4,0 6,9 15 8 18 10 SSE 1016,6 43 0 0,0
14.01.2020 03:00:00 2,4 0,7 0,7 2,0 4,2 6,9 12 6 22 12 SE 1017,4 35 0 0,0
14.01.2020 02:00:00 2,9 1,4 1,2 2,3 4,3 6,9 16 8 19 11 SE 1017,3 32 0 0,0
14.01.2020 01:00:00 3,3 1,8 1,7 2,8 4,3 6,9 15 8 21 11 SSE 1017,8 28 0 0,0
14.01.2020 00:00:00 3,9 2,5 2,9 3,4 4,4 6,9 15 8 22 12 SSE 1018,6 25 0 0,0
13.01.2020 23:00:00 4,1 3,0 3,3 3,1 4,5 6,9 15 8 19 10 S 1018,3 24 0 0,0
13.01.2020 22:00:00 4,3 3,0 2,2 3,2 4,6 7,0 11 6 21 12 SSE 1018,8 30 0 0,0
13.01.2020 21:00:00 4,4 4,0 3,1 3,5 4,7 7,0 16 9 22 12 SSE 1019,0 15 0 0,0
13.01.2020 20:00:00 4,8 4,3 3,2 3,9 4,8 7,0 14 8 22 12 SSE 1020,1 15 0 0,0
13.01.2020 19:00:00 5,4 4,7 3,9 4,2 4,9 7,0 17 9 22 12 SSE 1020,1 18 0 0,0
13.01.2020 18:00:00 5,8 5,0 3,0 4,9 4,8 7,0 8 5 12 6 S 1020,5 24 0 0,1
13.01.2020 17:00:00 6,9 5,7 5,9 6,0 4,7 7,0 4 2 9 5 SW 1020,3 14 0 0,1
13.01.2020 16:00:00 7,1 5,0 6,6 6,4 4,5 7,0 5 3 14 8 S 1020,3 29 0 0,0
13.01.2020 15:00:00 7,3 4,4 7,9 6,7 4,3 7,0 11 6 21 11 SE 1020,5 40 28 0,0
13.01.2020 14:00:00 6,8 3,6 7,2 6,2 4,1 7,0 11 6 26 14 SSE 1021,3 45 3 0,0
13.01.2020 13:00:00 6,1 3,5 6,6 5,6 3,9 7,0 21 11 27 15 SSE 1022,0 38 0 0,0
13.01.2020 12:00:00 5,1 2,6 5,1 5,1 3,7 7,0 10 5 13 7 SE 1023,5 7 0 0,0
13.01.2020 11:00:00 4,7 2,0 5,6 4,3 3,6 7,0 3 2 7 4 E 1024,4 26 0 0,0
13.01.2020 10:00:00 3,7 1,7 4,1 3,2 3,6 7,0 6 3 16 9 SE 1024,6 24 0 0,0
13.01.2020 09:00:00 3,2 1,3 2,9 2,7 3,6 7,0 12 6 19 10 SE 1024,8 29 0 0,0
13.01.2020 08:00:00 3,3 1,3 2,8 2,8 3,6 7,0 12 6 18 10 SSE 1025,2 28 0 0,0
13.01.2020 07:00:00 3,1 1,8 2,7 2,7 3,6 7,0 11 6 14 8 SE 1025,8 20 0 0,0
13.01.2020 06:00:00 3,1 1,8 2,7 2,8 3,6 7,0 9 5 14 7 SE 1026,2 18 0 0,0
13.01.2020 05:00:00 3,3 2,2 2,9 2,8 3,6 7,0 10 5 13 7 SSE 1026,6 21 0 0,0
13.01.2020 04:00:00 3,3 2,0 2,9 2,8 3,5 7,0 6 4 9 5 SE 1027,5 32 0 0,0
13.01.2020 03:00:00 3,3 1,8 2,7 2,7 3,5 7,0 4 2 6 3 SE 1027,9 35 0 0,0
13.01.2020 02:00:00 3,5 1,8 3,0 2,7 3,5 7,0 3 2 14 7 NE 1027,8 23 0 0,0
13.01.2020 01:00:00 3,2 1,7 2,8 2,7 3,5 7,0 9 5 15 8 SSE 1028,1 30 0 0,0
13.01.2020 00:00:00 2,8 2,0 2,3 2,6 3,4 7,0 10 6 20 11 SSE 1028,7 20 0 0,0
12.01.2020 23:00:00 2,9 1,2 2,4 2,5 3,4 7,0 9 5 14 7 S 1029,0 14 0 0,0
12.01.2020 22:00:00 3,1 0,2 2,5 2,4 3,4 7,0 9 5 17 9 S 1029,1 11 0 0,0
12.01.2020 21:00:00 3,2 -0,1 2,8 2,3 3,4 7,0 12 6 18 10 S 1028,9 46 0 0,0
12.01.2020 20:00:00 2,8 -0,3 2,2 2,1 3,4 7,0 13 7 26 14 S 1028,9 42 0 0,0
12.01.2020 19:00:00 2,6 -0,5 2,3 1,9 3,4 7,0 15 8 22 12 S 1028,8 39 0 0,0
12.01.2020 18:00:00 2,3 0,0 1,2 2,0 3,4 7,0 14 7 18 10 SSE 1028,8 28 0 0,0
12.01.2020 17:00:00 2,7 0,1 2,1 2,7 3,3 7,0 2 1 12 6 SW 1028,9 35 0 0,0
12.01.2020 16:00:00 2,7 -0,1 2,6 2,8 3,2 7,0 4 2 16 9 NW 1028,6 36 0 0,0
12.01.2020 15:00:00 2,8 0,1 3,1 2,9 3,1 7,0 9 5 16 9 NW 1028,5 31 7 0,0
12.01.2020 14:00:00 2,6 0,1 3,2 1,9 3,1 7,0 6 3 15 8 SW 1028,5 32 0 0,0

tt = temperature
td = dewpoint
tt 5cm = temperature 5cm
tt -5cm = temperature -5cm
tt -20cm = temperature -20cm
tt -100cm = temperature -100cm
ff = wind speed
fx = gusts
dd = wind direction
ppp = reduced air pressure
vv = visibility
sd = sunshine duration
rr = precipitation

Next stations